NWS Melbourne » East Central Florida Hourly Weather Roundup

 

ASUS42 KMLB 301611
RWRMLB
HOURLY WEATHER ROUNDUP AROUND FLORIDA
NATIONAL WEATHER SERVICE OFFICE MELBOURNE FL
1200 PM EDT TUE AUG 30 2016
  
CITY           SKY/WX    TMP DP  RH WIND       PRES   REMARKS
MELBOURNE      MOSUNNY   83  76  79 E10       29.94F                  
FORT PIERCE    PTSUNNY   85  76  74 SW9       29.94F                  
ORLANDO INTL   MOSUNNY   86  74  67 E8        29.94F                  
DAYTONA BEACH  CLOUDY    79  76  90 E8G18     29.96F                  
VERO BEACH     PTSUNNY   86  77  74 VRB6      29.94F                  
$$
...ELSEWHERE ACROSS CENTRAL FLORIDA...
  
CITY           SKY/WX    TMP DP  RH WIND       PRES   REMARKS
PATRICK AFB    MOSUNNY   83  75  76 E9        29.94F                  
KSC            PTSUNNY   83  73  72 SE7       29.94F                  
CAPE CANAVERAL PTSUNNY   81  74  78 E10       29.93F                  
TITUSVILLE     PTSUNNY   82  79  89 SE12      29.95F                  
ORLANDO EXEC   PTSUNNY   84  75  74 E7        29.94F                  
LEESBURG       MOSUNNY   85  74  69 SE6       29.96R                  
THE VILLAGES     N/A     86  77  74 MISG      29.85S                  
SANFORD        MOSUNNY   87  73  62 E7        29.94F                  
DELAND         LGT RAIN  79  77  94 E9        29.95S                  
NEW SMYRNA BCH LGT RAIN  79  75  89 SE16      29.97S FOG              
ORMOND BEACH   LGT RAIN  77  75  94 SE9G17    29.97S FOG              
WINTER HAVEN   MOSUNNY   84  72  67 E5        29.95F                  
KISSIMMEE      PTSUNNY   84  74  71 SE6       29.95F                  
OKEECHOBEE     MOSUNNY   82  77  83 S5        29.95F                  
TAMPA          PTSUNNY   86  75  69 VRB7      29.92F                  
$$
...NORTHERN FLORIDA...
  
CITY           SKY/WX    TMP DP  RH WIND       PRES   REMARKS
ST AUGUSTINE   LGT RAIN  79  75  89 E13       30.00S FOG              
OCALA          PTSUNNY   84  73  70 E6        29.96S                  
GAINESVILLE    PTSUNNY   85  72  65 NE10      29.97S                  
JACKSONVILLE   MOSUNNY   86  74  67 E16G22    29.99F                  
TALLAHASSEE    PTSUNNY   85  74  69 NE12      29.99S                  
$$
...ALONG THE SOUTHEAST COAST TO THE KEYS...
  
CITY           SKY/WX    TMP DP  RH WIND       PRES   REMARKS
STUART         PTSUNNY   86  77  74 S6        29.96F                  
WEST PALM BCH  LGT RAIN  82  75  79 SE18G25   29.96F                  
MIAMI          LGT RAIN  83  76  79 S10G21    29.95S                  
KEY WEST       CLOUDY    83  75  77 S25G33    29.93S                  
$$
...MARINE REPORTS...
  
STATION/POSITION TIME  TEMP    WIND        PRES    WAVE   SWELL
                       AIR SEA DIR/SP/G            HT/PER HT/PER
                 (UTC) (F)     (DEG/KT/KT) (MB)    (FT/S) (FT/S)
ST AUGUSTINE FP  1600   75 83  150/ 17/ 19 1016.5F
20NM E CAPE CANA 1450   79 83  100/  8/ 10 1015.0    5/ 6   5/ 6
TRIDENT PIER     1548   82 86  110/  6/  9 1014.2F
SEBASTIAN INLET  1600   79 82              1015.0
4NM E PORT CANAV 1540      84                N/A     3/ 6   2/13
6NM NE FPR INLET 1530      83                N/A     4/ 8   2/12
SETTLEMENT PT GB 1600   78     260/  2/  3 1016.5R
$$
  
 

 

Link to: East Central Florida Hourly Weather Roundup


USA.gov is the U.S. government's official web portal to all federal, state and local government web resources and services.